[[{"header":{"parameterUnit":"m.s-1","parameterCategory":1,"la1":30.2991,"la2":30.254,"lo1":-89.0895,"lo2":-89.0444,"dy":0.0017,"dx":0.0017,"nx":28,"ny":28,"refTime":"2025-12-18T03:00:00:Z","depth":0,"parameterNumber":2,"parameterNumberName":"U-component_of_WINDS"},"data":[0,0,0,0,0,0,0,0,0,0,0,0,0,0,0,0,0,0,0,0,0,0,0,0,0,0,0,0,0,0,0,0,0,0,0,0,0,0,0,0,0,0,0,0,0,0,0,0,0,0,0,0,0,0,0,0,0,0,-0.4323,-0.4324,0,-0.4349,-0.4349,-0.4349,-0.4328,-0.4327,-0.4326,-0.4325,-0.4353,-0.4355,-0.4357,0,0,0,0,0,0,0,0,0,0,0,0,0,-0.4258,-0.426,-0.4323,-0.4324,-0.4324,-0.4349,-0.4349,-0.4349,-0.4328,-0.4327,-0.4326,-0.4325,-0.4353,-0.4355,-0.4357,0,0,0,0,0,0,0,0,0,0,0,0,0,-0.4285,-0.426,-0.4323,-0.4316,-0.4316,-0.4348,-0.4349,-0.4349,-0.4328,-0.4327,-0.4326,-0.4324,-0.4352,-0.4355,-0.4357,-0.4399,0,0,-0.4364,-0.4365,0,0,0,0,0,0,0,0,-0.4284,-0.4288,-0.4317,-0.4317,-0.4316,-0.4334,-0.4336,-0.4366,-0.4329,-0.4324,-0.4325,-0.4324,-0.4348,-0.4351,-0.4358,-0.44,-0.4401,-0.4364,-0.4366,-0.4367,-0.4368,0,0,0,0,0,0,0,-0.4282,-0.4287,-0.4333,-0.4317,-0.4317,-0.4312,-0.4315,-0.4342,-0.4343,-0.4324,-0.4322,-0.4326,-0.4348,-0.4356,-0.4359,-0.4401,-0.4364,-0.4366,-0.4368,-0.4369,-0.4479,-0.448,0,0,0,0,0,0,-0.4281,-0.4285,-0.4333,-0.4334,-0.4296,-0.4315,-0.4317,-0.4329,-0.4343,-0.4343,-0.4327,-0.4325,-0.4353,-0.4356,-0.436,-0.441,-0.4367,-0.4369,-0.437,-0.4477,-0.4479,-0.4481,0,0,0,0,0,0,-0.4279,-0.4285,-0.4331,-0.4309,-0.4315,-0.4317,-0.4331,-0.4331,-0.4339,-0.4345,-0.4345,-0.4335,-0.4352,-0.4357,-0.4389,-0.4411,-0.437,-0.4372,-0.4476,-0.4478,-0.448,-0.4511,0,0,0,0,0,0,-0.4278,-0.4285,-0.43,-0.431,-0.4316,-0.436,-0.4332,-0.4332,-0.4343,-0.434,-0.4353,-0.4354,-0.4351,-0.4386,-0.4391,-0.4413,-0.4374,-0.4474,-0.4477,-0.4479,-0.4508,-0.4514,-0.4519,0,0,0,0,0,-0.4275,-0.4308,-0.4301,-0.4307,-0.4335,-0.4361,-0.4365,-0.4361,-0.4345,-0.4361,-0.4364,-0.4353,-0.4407,-0.4389,-0.4395,-0.4419,-0.4472,-0.4476,-0.4479,-0.4505,-0.4513,-0.4519,0,0,0,0,0,0,-0.4302,-0.4309,-0.4302,-0.4338,-0.4349,-0.4357,-0.4377,-0.4368,-0.4385,-0.4382,-0.4376,-0.4379,-0.4414,-0.4419,-0.4399,-0.446,-0.4437,-0.4442,-0.4455,-0.4462,-0.4467,-0.4466,-0.4376,0,0,0,0,0,-0.4312,-0.4332,-0.4337,-0.4369,-0.4375,-0.4375,-0.4386,-0.4382,-0.4393,-0.4398,-0.4404,-0.4416,-0.4436,-0.4449,-0.4467,-0.4508,-0.4511,-0.4527,-0.4532,-0.4537,-0.4542,-0.4564,-0.4572,-0.4492,-0.4492,-0.4492,0,0,-0.4333,-0.434,-0.4352,-0.4375,-0.4382,-0.4404,-0.4379,-0.4403,-0.4419,-0.4402,-0.4433,-0.4438,-0.4451,-0.4488,-0.4504,-0.4493,-0.4564,-0.4541,-0.4545,-0.4547,-0.4568,-0.4576,-0.4583,-0.4494,-0.4494,-0.4493,0,0,-0.4383,-0.4389,-0.4417,-0.4425,-0.4437,-0.4437,-0.4444,-0.4453,-0.4456,-0.4486,-0.4474,-0.4493,-0.4527,-0.4537,-0.4547,-0.46,-0.459,-0.4606,-0.4635,-0.4657,-0.4664,-0.4669,-0.4689,-0.4696,-0.461,-0.461,-0.461,0,-0.4408,-0.4439,-0.4432,-0.4457,-0.4467,-0.4452,-0.448,-0.4489,-0.4507,-0.4515,-0.4502,-0.4544,-0.4551,-0.4591,-0.4604,-0.4611,-0.462,-0.4605,-0.4663,-0.4669,-0.4674,-0.4693,-0.47,-0.4612,-0.4612,-0.4612,-0.4611,0,-0.447,-0.4491,-0.4512,-0.4529,-0.4542,-0.4568,-0.4566,-0.458,-0.4574,-0.4576,-0.4608,-0.4616,-0.4636,-0.4645,-0.464,-0.4684,-0.4677,-0.4663,-0.4641,-0.4683,-0.4701,-0.4708,-0.4615,-0.4614,-0.4614,-0.4613,0,0,-0.4538,-0.455,-0.4558,-0.4566,-0.4578,-0.4595,-0.4621,-0.4639,-0.4652,-0.4664,-0.4686,-0.4715,-0.4703,-0.4714,-0.4709,-0.4729,-0.4771,-0.4713,-0.4713,-0.4725,-0.4821,-0.4832,-0.4841,-0.4764,-0.4766,-0.4767,-0.482,0,-0.4589,-0.4633,-0.4628,-0.4671,-0.4691,-0.4677,-0.4699,-0.4709,-0.4711,-0.4729,-0.4731,-0.4752,-0.4734,-0.474,-0.4759,-0.4762,-0.4791,-0.4758,-0.4786,-0.4787,-0.4785,-0.485,-0.4861,-0.4912,-0.4827,-0.4828,-0.4829,0,-0.4655,-0.4669,-0.4714,-0.4723,-0.4731,-0.4751,-0.4769,-0.4785,-0.4797,-0.4797,-0.4809,-0.4801,-0.4828,-0.4804,-0.4841,-0.4818,-0.4829,-0.4833,-0.4835,-0.4838,-0.4812,-0.4856,-0.4927,-0.4936,-0.484,-0.4839,-0.4838,0,-0.4702,-0.4732,-0.4763,-0.477,-0.4781,-0.4795,-0.4801,-0.481,-0.4822,-0.4837,-0.4845,-0.4863,-0.4873,-0.4887,-0.4885,-0.4868,-0.4923,-0.4899,-0.4925,-0.4925,-0.4939,-0.4938,-0.5014,-0.4943,-0.4943,-0.4943,-0.4943,0,-0.476,-0.4789,-0.4784,-0.4803,-0.4835,-0.4828,-0.486,-0.4863,-0.4872,-0.4892,-0.488,-0.4899,-0.4894,-0.4914,-0.4912,-0.4943,-0.4948,-0.4949,-0.4949,-0.4951,-0.4951,-0.4959,-0.4956,-0.4945,-0.4945,-0.4944,-0.4944,0,-0.4819,-0.4817,-0.485,-0.4857,-0.4859,-0.4882,-0.4889,-0.4907,-0.4907,-0.4933,-0.4939,-0.494,-0.4962,-0.496,-0.4985,-0.4984,-0.5023,-0.5018,-0.502,-0.5019,-0.5046,-0.5044,-0.513,-0.5142,-0.5063,-0.5064,-0.5064,0,-0.4857,-0.4878,-0.4888,-0.49,-0.4906,-0.4926,-0.4938,-0.4932,-0.4945,-0.4959,-0.4976,-0.4997,-0.5013,-0.5049,-0.5052,-0.5071,-0.5067,-0.5096,-0.507,-0.5072,-0.5069,-0.5069,-0.5071,-0.5102,-0.5103,-0.5104,-0.5104,0,-0.4925,-0.4923,-0.494,-0.4957,-0.4971,-0.4985,-0.4997,-0.5007,-0.5003,-0.5018,-0.504,-0.5053,-0.5078,-0.5099,-0.5117,-0.5123,-0.5114,-0.5112,-0.5119,-0.5123,-0.5123,-0.5125,-0.5035,-0.5111,-0.511,-0.5109,-0.5109,-0.5109,-0.4976,-0.4994,-0.5004,-0.5023,-0.5031,-0.5043,-0.506,-0.5063,-0.5081,-0.51,-0.5096,-0.5121,-0.5132,-0.5155,-0.5162,-0.5182,-0.5172,-0.5182,-0.5185,-0.5188,-0.5192,-0.5119,-0.5185,-0.5185,-0.5185,-0.5185,-0.5185,0,-0.5044,-0.5049,-0.5067,-0.5084,-0.51,-0.5088,-0.5101,-0.5115,-0.5137,-0.5147,-0.5163,-0.5189,-0.5209,-0.5214,-0.5233,-0.5248,-0.5244,-0.5254,-0.5253,-0.5255,-0.5199,-0.5192,-0.5256,-0.5256,-0.5256,-0.5256,-0.5256,-0.5256,-0.5082,-0.5113,-0.5112,-0.5147,-0.5152,-0.5176,-0.5184,-0.5195,-0.5203,-0.5232,-0.5248,-0.5251,-0.5259,-0.5279,-0.5298,-0.5298,-0.5307,-0.5318,-0.5318,-0.5266,-0.5259,-0.5252,-0.5245,-0.532,-0.532,-0.5372,-0.5372,-0.5372]},{"header":{"parameterUnit":"m.s-1","parameterCategory":1,"la1":30.2991,"la2":30.254,"lo1":-89.0895,"lo2":-89.0444,"dy":0.0017,"dx":0.0017,"nx":28,"ny":28,"refTime":"2025-12-18T03:00:00:Z","depth":0,"parameterNumber":3,"parameterNumberName":"V-component_of_WINDS"},"data":[0,0,0,0,0,0,0,0,0,0,0,0,0,0,0,0,0,0,0,0,0,0,0,0,0,0,0,0,0,0,0,0,0,0,0,0,0,0,0,0,0,0,0,0,0,0,0,0,0,0,0,0,0,0,0,0,0,0,-3.4818,-3.4819,0,-3.4941,-3.4942,-3.4943,-3.4916,-3.4914,-3.4912,-3.4909,-3.5032,-3.5037,-3.5042,0,0,0,0,0,0,0,0,0,0,0,0,0,-3.4558,-3.4563,-3.4818,-3.482,-3.4821,-3.494,-3.4942,-3.4944,-3.4917,-3.4914,-3.4911,-3.4908,-3.503,-3.5036,-3.5043,0,0,0,0,0,0,0,0,0,0,0,0,0,-3.4675,-3.4565,-3.4818,-3.4822,-3.4824,-3.494,-3.4942,-3.4944,-3.4917,-3.4914,-3.491,-3.4907,-3.5028,-3.5036,-3.5044,-3.5163,0,0,-3.5068,-3.5072,0,0,0,0,0,0,0,0,-3.4668,-3.4684,-3.482,-3.4822,-3.4824,-3.491,-3.4895,-3.5017,-3.4918,-3.4882,-3.4909,-3.4905,-3.4994,-3.5004,-3.5035,-3.5168,-3.5174,-3.5069,-3.5074,-3.5078,-3.508,0,0,0,0,0,0,0,-3.466,-3.4679,-3.4866,-3.4822,-3.4824,-3.4817,-3.483,-3.4918,-3.4955,-3.4884,-3.4883,-3.4898,-3.4994,-3.5027,-3.5037,-3.5175,-3.5069,-3.5076,-3.5081,-3.5084,-3.5414,-3.5418,0,0,0,0,0,0,-3.4651,-3.4672,-3.4863,-3.487,-3.4736,-3.4825,-3.4839,-3.4886,-3.4954,-3.4962,-3.4901,-3.4896,-3.5015,-3.5028,-3.5042,-3.5187,-3.5077,-3.5085,-3.509,-3.541,-3.5415,-3.5419,0,0,0,0,0,0,-3.4645,-3.4668,-3.4858,-3.4771,-3.4795,-3.4833,-3.4885,-3.489,-3.4923,-3.4967,-3.4973,-3.4928,-3.5013,-3.503,-3.5133,-3.519,-3.5089,-3.5096,-3.5405,-3.5411,-3.5417,-3.5476,0,0,0,0,0,0,-3.4638,-3.4666,-3.4712,-3.4772,-3.4799,-3.4948,-3.4889,-3.4895,-3.4937,-3.4932,-3.4994,-3.5,-3.5011,-3.5121,-3.5141,-3.52,-3.5102,-3.54,-3.5408,-3.5415,-3.547,-3.5484,-3.5496,0,0,0,0,0,-3.4629,-3.4723,-3.4715,-3.4738,-3.4858,-3.4951,-3.4967,-3.4978,-3.4942,-3.4988,-3.5017,-3.4999,-3.5181,-3.5132,-3.5154,-3.5216,-3.5397,-3.5406,-3.5414,-3.5464,-3.5481,-3.5495,0,0,0,0,0,0,-3.4667,-3.4731,-3.4722,-3.4839,-3.489,-3.4947,-3.5005,-3.4996,-3.5057,-3.505,-3.5061,-3.5075,-3.518,-3.5208,-3.5153,-3.5335,-3.5284,-3.5297,-3.5313,-3.533,-3.5343,-3.5334,-3.5109,0,0,0,0,0,-3.4689,-3.4761,-3.4812,-3.491,-3.4937,-3.4967,-3.5008,-3.5013,-3.5066,-3.5087,-3.5122,-3.5174,-3.5243,-3.5288,-3.5353,-3.5473,-3.5487,-3.5527,-3.554,-3.555,-3.5562,-3.5629,-3.5647,-3.5448,-3.5448,-3.5447,0,0,-3.4735,-3.4779,-3.4823,-3.4919,-3.4959,-3.5033,-3.4985,-3.5064,-3.5119,-3.5098,-3.5198,-3.5227,-3.5284,-3.5397,-3.5448,-3.5423,-3.562,-3.5561,-3.5569,-3.5576,-3.564,-3.5658,-3.5675,-3.5454,-3.5453,-3.5452,0,0,-3.4857,-3.4898,-3.4984,-3.5026,-3.5088,-3.5108,-3.5129,-3.5188,-3.5206,-3.5307,-3.5294,-3.5358,-3.5476,-3.5519,-3.5555,-3.5696,-3.5681,-3.5716,-3.5785,-3.5849,-3.5865,-3.5879,-3.593,-3.5948,-3.5728,-3.5728,-3.5728,0,-3.4907,-3.5018,-3.503,-3.5111,-3.5154,-3.5141,-3.5229,-3.5268,-3.5348,-3.5377,-3.5349,-3.5498,-3.5536,-3.5659,-3.5693,-3.5723,-3.5748,-3.571,-3.5862,-3.5876,-3.589,-3.5938,-3.5957,-3.5732,-3.5732,-3.5731,-3.5731,0,-3.5076,-3.5153,-3.5216,-3.5295,-3.5345,-3.5429,-3.5453,-3.5502,-3.5503,-3.5526,-3.5629,-3.5674,-3.575,-3.5779,-3.5779,-3.5902,-3.5885,-3.5859,-3.5808,-3.5912,-3.5958,-3.5977,-3.5738,-3.5736,-3.5735,-3.5734,0,0,-3.5224,-3.5311,-3.5334,-3.5371,-3.5439,-3.5499,-3.5582,-3.5658,-3.57,-3.5755,-3.5826,-3.5927,-3.5904,-3.5946,-3.5952,-3.6009,-3.6118,-3.5976,-3.5977,-3.6001,-3.6257,-3.6277,-3.6298,-3.6109,-3.6113,-3.6115,-3.6252,0,-3.5353,-3.5503,-3.5516,-3.565,-3.5722,-3.5711,-3.5784,-3.5834,-3.5857,-3.5921,-3.5946,-3.6019,-3.5983,-3.6008,-3.6064,-3.6093,-3.6169,-3.6083,-3.6175,-3.6178,-3.6161,-3.6322,-3.6343,-3.647,-3.627,-3.6273,-3.6276,0,-3.5523,-3.5586,-3.5728,-3.5788,-3.5818,-3.5884,-3.5955,-3.6016,-3.6072,-3.6086,-3.6134,-3.6132,-3.6218,-3.6163,-3.6282,-3.6223,-3.6261,-3.6281,-3.6286,-3.6295,-3.6233,-3.6336,-3.651,-3.653,-3.6304,-3.6302,-3.6299,0,-3.5619,-3.5739,-3.5839,-3.5871,-3.5943,-3.599,-3.6022,-3.6074,-3.6119,-3.6181,-3.621,-3.628,-3.6319,-3.6373,-3.639,-3.6348,-3.6509,-3.6455,-3.6522,-3.6522,-3.6556,-3.6554,-3.674,-3.658,-3.658,-3.6579,-3.6579,0,-3.5762,-3.5849,-3.5884,-3.5945,-3.6043,-3.6058,-3.6154,-3.6183,-3.623,-3.6298,-3.6291,-3.6354,-3.6373,-3.6439,-3.6453,-3.655,-3.6567,-3.658,-3.6582,-3.6581,-3.6579,-3.6606,-3.6598,-3.6584,-3.6583,-3.6582,-3.6582,0,-3.5885,-3.5912,-3.6021,-3.6081,-3.6098,-3.6167,-3.6218,-3.6278,-3.6301,-3.6386,-3.6407,-3.6443,-3.652,-3.6543,-3.6636,-3.6645,-3.6759,-3.6753,-3.6741,-3.6741,-3.6807,-3.6801,-3.7018,-3.7047,-3.6867,-3.6869,-3.687,0,-3.5974,-3.6041,-3.611,-3.6155,-3.619,-3.6262,-3.6309,-3.6326,-3.6375,-3.6445,-3.6496,-3.6573,-3.6636,-3.676,-3.6794,-3.6865,-3.6862,-3.6933,-3.6872,-3.6869,-3.6864,-3.686,-3.6867,-3.6944,-3.6946,-3.6947,-3.6949,0,-3.6131,-3.6141,-3.6209,-3.6283,-3.6339,-3.6397,-3.6453,-3.649,-3.6515,-3.657,-3.665,-3.6699,-3.6795,-3.6872,-3.6944,-3.6976,-3.6967,-3.6968,-3.6987,-3.6986,-3.6977,-3.6984,-3.6773,-3.6963,-3.6961,-3.696,-3.6959,-3.6959,-3.6241,-3.6301,-3.6359,-3.6435,-3.6479,-3.6532,-3.6591,-3.6623,-3.6691,-3.6771,-3.6777,-3.6864,-3.692,-3.7016,-3.7052,-3.712,-3.7099,-3.7127,-3.7135,-3.7142,-3.7148,-3.6966,-3.7133,-3.7133,-3.7133,-3.7132,-3.7132,0,-3.6398,-3.6435,-3.6505,-3.6585,-3.6645,-3.6633,-3.6694,-3.6745,-3.6822,-3.6875,-3.6938,-3.7031,-3.7106,-3.7146,-3.7221,-3.7267,-3.7265,-3.7286,-3.7283,-3.7291,-3.7162,-3.7138,-3.7287,-3.7287,-3.7287,-3.7287,-3.7287,-3.7287,-3.6487,-3.6588,-3.6606,-3.6729,-3.6765,-3.6852,-3.6888,-3.6937,-3.698,-3.7084,-3.7147,-3.7174,-3.7222,-3.73,-3.7368,-3.7378,-3.7406,-3.743,-3.7438,-3.7316,-3.73,-3.7285,-3.7263,-3.7436,-3.7436,-3.7562,-3.7563,-3.7564]}]]